N1CTF-9 Weather Reports


time (UTC)temp
C
wind
direction
speed
KPH
gust
KPH
rain 1hr
cm
rain 24hr
cm
rain mn
cm
humidity
%
barometer
mb
20260506235434 11 77 3.2 4.8 0.00 0.00 0.61 48 1013.1
20260506234433 11 80 1.6 4.8 0.00 0.00 0.61 49 1013.0
20260506233433 11 39 6.4 12.9 0.00 0.00 0.61 46 1012.6
20260506232433 11 42 1.6 6.4 0.00 0.00 0.61 47 1012.8
20260506231433 12 60 6.4 8.0 0.00 0.00 0.61 46 1013.0
20260506230433 12 28 4.8 4.8 0.00 0.00 0.61 49 1013.0
20260506225433 12 36 4.8 9.7 0.00 0.00 0.61 47 1012.8
20260506224433 12 57 1.6 8.0 0.00 0.00 0.61 49 1013.1
20260506223433 12 214 3.2 4.8 0.00 0.00 0.61 49 1013.1
20260506222433 12 69 1.6 6.4 0.00 0.00 0.61 48 1013.0
20260506221433 12 14 3.2 11.3 0.00 0.00 0.61 47 1013.1
20260506220433 12 55 3.2 6.4 0.00 0.00 0.61 49 1012.9
20260506215433 12 0 6.4 9.7 0.00 0.00 0.61 47 1012.8
20260506214433 12 43 8.0 8.0 0.00 0.00 0.61 45 1012.7
20260506213433 12 75 1.6 6.4 0.00 0.00 0.61 48 1012.3
20260506212433 12 50 3.2 12.9 0.00 0.00 0.61 47 1012.4
20260506211433 12 10 3.2 6.4 0.00 0.00 0.61 45 1012.4
20260506210433 12 33 8.0 8.0 0.00 0.00 0.61 46 1012.4
20260506205433 12 15 4.8 9.7 0.00 0.00 0.61 46 1012.3
20260506204433 12 6 4.8 9.7 0.00 0.00 0.61 46 1012.3
20260506203433 12 96 3.2 14.5 0.00 0.00 0.61 46 1012.0
20260506202433 12 83 4.8 8.0 0.00 0.00 0.61 47 1012.0
20260506201433 12 76 4.8 9.7 0.00 0.00 0.61 48 1012.3
20260506200433 12 50 6.4 9.7 0.00 0.00 0.61 48 1011.9
20260506195434 12 38 6.4 8.0 0.00 0.00 0.61 47 1012.2
20260506194433 12 12 4.8 12.9 0.00 0.00 0.61 48 1012.1
20260506193434 12 40 4.8 9.7 0.00 0.00 0.61 47 1012.2
20260506192433 13 26 3.2 6.4 0.00 0.00 0.61 46 1012.1